Weather History for KDET - April, 2014

Change the Weather History Date:

Wednesday, April 23, 2014

  Actual Average Record
Temperature  
Mean Temperature 48 °F -  
Max Temperature 59 °F 61 °F 86 °F (1960)
Min Temperature 39 °F 43 °F 26 °F (1989)
Degree Days  
Heating Degree Days 17    
Moisture  
Dew Point 26 °F    
Average Humidity 48    
Maximum Humidity 65    
Minimum Humidity 20    
Precipitation  
Precipitation 0.00 in - - ()
Sea Level Pressure  
Sea Level Pressure 30.05 in    
Wind  
Wind Speed 11 mph (North)    
Max Wind Speed 15 mph    
Max Gust Speed 23 mph    
Visibility 10 miles    
Events      
Averages and records for this station are not official NWS values.
T = Trace of Precipitation, MM = Missing Value Source: NWS Daily Summary

Daily Weather History Graph

Daily Weather History Graph

Search for Another Location

Airport or City:

Trip Planner

Search our weather history database for the weather conditions in past years. The results will help you decide how hot, cold, wet, or windy it might be!

Date:

Astronomy

Apr. 23, 2014 Rise Set
Actual Time 6:38 AM EDT 8:22 PM EDT
Civil Twilight 6:08 AM EDT 8:52 PM EDT
Nautical Twilight 5:32 AM EDT 9:29 PM EDT
Astronomical Twilight 4:53 AM EDT 10:08 PM EDT
Moon 3:17 AM EDT (4/23) 2:23 PM EDT (4/23)
Length of Visible Light 14h 44m
Length of Day
13h 44m
Waning Crescent, 35% of the Moon is Illuminated
Apr 23
Waning Crescent
Apr 29
New
May 6
First Quarter
May 14
Full
May 21
Last Quarter

Hourly Weather History & Observations

Time (EDT) Temp. Windchill Dew Point Humidity Pressure Visibility Wind Dir Wind Speed Gust Speed Precip Events Conditions
12:40 AM 43.0 °F 36.8 °F 28.9 °F 58% 29.94 in 10.0 mi NNW 11.5 mph 19.6 mph N/A   Overcast
12:53 AM 42.1 °F 35.2 °F 28.9 °F 60% 29.95 in 10.0 mi NNW 12.7 mph 21.9 mph N/A   Overcast
1:19 AM 42.1 °F 34.9 °F 28.0 °F 58% 29.95 in 10.0 mi NNW 13.8 mph 23.0 mph N/A   Overcast
1:53 AM 42.1 °F 36.1 °F 28.9 °F 60% 29.96 in 10.0 mi NNW 10.4 mph - N/A   Overcast
2:53 AM 41.0 °F 35.2 °F 28.9 °F 62% 29.96 in 10.0 mi NNW 9.2 mph 19.6 mph N/A   Overcast
3:43 AM 41.0 °F 35.2 °F 28.0 °F 60% 29.95 in 10.0 mi NNW 9.2 mph - N/A   Overcast
3:53 AM 41.0 °F 34.3 °F 28.0 °F 60% 29.96 in 10.0 mi NNW 11.5 mph - N/A   Overcast
4:53 AM 41.0 °F 33.5 °F 28.0 °F 60% 29.99 in 10.0 mi NNW 13.8 mph - N/A   Overcast
5:00 AM 41.0 °F 34.3 °F 28.0 °F 60% 29.98 in 10.0 mi NNW 11.5 mph 19.6 mph N/A   Overcast
5:53 AM 39.9 °F 31.8 °F 28.0 °F 63% 30.01 in 10.0 mi NNW 15.0 mph 20.7 mph N/A   Overcast
6:53 AM 39.9 °F 33.4 °F 28.9 °F 65% 30.04 in 10.0 mi NNW 10.4 mph - N/A   Overcast
7:53 AM 39.9 °F 32.5 °F 28.0 °F 63% 30.06 in 10.0 mi NNW 12.7 mph 19.6 mph N/A   Overcast
8:53 AM 41.0 °F 34.7 °F 28.0 °F 60% 30.08 in 10.0 mi North 10.4 mph - N/A   Overcast
9:53 AM 43.0 °F 36.8 °F 28.0 °F 56% 30.09 in 10.0 mi NNW 11.5 mph - N/A   Overcast
10:40 AM 44.1 °F 39.0 °F 27.0 °F 51% 30.08 in 10.0 mi NW 9.2 mph - N/A   Overcast
10:53 AM 45.0 °F 40.1 °F 28.0 °F 52% 30.10 in 10.0 mi NNW 9.2 mph 17.3 mph N/A   Overcast
11:53 AM 48.0 °F - 28.0 °F 46% 30.11 in 10.0 mi NNW 10.4 mph 18.4 mph N/A   Scattered Clouds
12:53 PM 52.0 °F - 28.0 °F 40% 30.11 in 10.0 mi NNW 9.2 mph - N/A   Scattered Clouds
1:53 PM 53.1 °F - 26.1 °F 35% 30.10 in 10.0 mi NNW 10.4 mph - N/A   Clear
2:53 PM 55.0 °F - 25.0 °F 31% 30.10 in 10.0 mi NNE 9.2 mph - N/A   Clear
3:53 PM 55.9 °F - 24.1 °F 29% 30.09 in 10.0 mi NNE 8.1 mph - N/A   Clear
4:53 PM 57.0 °F - 21.0 °F 25% 30.09 in 10.0 mi North 9.2 mph - N/A   Clear
5:53 PM 57.0 °F - 17.1 °F 21% 30.09 in 10.0 mi NNE 12.7 mph - N/A   Clear
6:53 PM 55.0 °F - 14.0 °F 20% 30.09 in 10.0 mi NNE 11.5 mph - N/A   Clear
7:53 PM 51.1 °F - 12.0 °F 21% 30.10 in 10.0 mi NNE 9.2 mph - N/A   Clear
8:53 PM 46.9 °F - 19.0 °F 33% 30.12 in 10.0 mi ENE 6.9 mph - N/A   Clear
9:53 PM 45.0 °F 43.5 °F 27.0 °F 49% 30.14 in 10.0 mi ESE 3.5 mph - N/A   Clear
10:53 PM 44.1 °F 40.1 °F 27.0 °F 51% 30.15 in 10.0 mi ESE 6.9 mph - N/A   Clear
11:53 PM 41.0 °F 37.1 °F 26.1 °F 55% 30.16 in 10.0 mi East 5.8 mph - N/A   Clear